SL-8 DEB

Satellite information

Favourite Embed

Satellite Type and Status

DEBRISIN ORBIT

Key statistics

Satellite SL-8 DEB at a glance.

Uptime

15457

Days in orbit

Revolutions

≈ 14.4

Per day

Orbit

LEO

Low Earth Orbit

Inclination

82.9

Latest

Satellite identification and parameters

Extended collection of information and parameters for SL-8 DEB.

Object identification

Identified? True

Debris? True

Object name: SL-8 DEB

International designator: 1983-001C

Object number (NORAD): 14568

Object ID (CCSDS): 14568

Country: COMMONWEALTH OF INDEPENDENT STATES (CIS)

Current information (Y/N): Y

RCS size: SMALL

Orbital parameters

Period: 99.882 minutes

Inclination: 82.8893 deg

SMA: 7131.037 km

Apoapsis: 764.699 km

Periapsis: 741.105 km

RAAN: 122.1472 deg

Eccentricy: 0.0016543

Argument of periapsis: 312.0096 deg

Mean anomaly: 47.9687 deg

Mean motion: 14.41696117 rev/day

Mean motion (dot): 0.00006055 rev/day2

B* drag term: 0.0018492 1/REarth

Two-line elements (TLE)

Creation date: May 7, 2025, 6:26 a.m.

Reference frame: TEME

Reference center: EARTH

Epoch: May 6, 2025, 10:08 p.m. UTC

TLE line 0: 0 SL-8 DEB

TLE line 1: 1 14568U 83001C 25126.92248418 .00006055 00000-0 18492-2 0 9992

TLE line 2: 2 14568 82.8893 122.1472 0016543 312.0096 47.9687 14.41696117239323

Live tracking on map

Real-time ground track for satellite SL-8 DEB.

In-orbit conjunctions

A list of the most updated potential collisions computed for object SL-8 DEB.

Target Orbit TCA Probability of collision Miss distance Type
CZ-2C DEB SSO 2025-05-04 22:07:40 0.0001825647 344.0 (m) DEBRIS
CZ-6A DEB LEO 2025-03-04 07:27:24 0.0002333218 699.0 (m) DEBRIS
FENGYUN 1C DEB SSO 2025-01-24 05:58:38 0.0001303964 141.0 (m) DEBRIS
FENGYUN 1C DEB SSO 2024-11-14 11:14:59 0.0005603874 421.0 (m) DEBRIS
CZ-4 DEB SSO 2024-07-10 00:22:39 0.0001061936 443.0 (m) DEBRIS

Associated space launch

Navigation satellite providing location information for the Tsiklon-B navigation system

SL-8 DEB was lifted into orbit during the mission ‘Kosmos-3M | Parus 36’, on board a Kosmos-3M space rocket.

The launch took place on Jan. 12, 1983, 2:02 p.m. from 132/2.

For more information about the launch, click the button.

Launch to space Kosmos-3M | Parus 36
Kosmos-3M | Parus 36

Agency: N/A

Status: Launch Successful

Launch date: Jan. 12, 1983, 2:02 p.m. UTC

Rocket: Kosmos-3M

Launch pad: 132/2

Location: Plesetsk Cosmodrome, Russian Federation

...

Latest news about this satellite

There are no fresh news available about this satellite. Check back as we update our databases every day.


Newsletter sign-up

Weekly statistics, charts and insights to help you stay on top of the space industry.